�������l�o���
Date,Time,MP-1(��Sv/h),MP-2(��Sv/h),MP-3(��Sv/h),MP-4(��Sv/h),MP-5(��Sv/h),MP-6(��Sv/h),MP-7(��Sv/h),MP-8(��Sv/h),����,����(m/s),���J
2023/12/04,00:00,0.530,0.804,0.496,1.013,0.723,0.317,0.572,0.533,�k��,3.6,��
2023/12/04,00:10,0.530,0.803,0.496,1.011,0.724,0.317,0.574,0.533,�k��,2.8,��
2023/12/04,00:20,0.531,0.803,0.496,1.010,0.724,0.317,0.572,0.532,���k��,1.5,��
2023/12/04,00:30,0.530,0.807,0.496,1.009,0.725,0.318,0.572,0.532,�k��,2.3,��
2023/12/04,00:40,0.530,0.802,0.496,1.012,0.724,0.318,0.571,0.533,�k��,4.2,��
2023/12/04,00:50,0.530,0.804,0.497,1.008,0.725,0.319,0.572,0.532,�k��,5.1,��
2023/12/04,01:00,0.529,0.804,0.496,1.009,0.724,0.317,0.572,0.532,�k��,5.3,��
2023/12/04,01:10,0.529,0.805,0.497,1.011,0.723,0.318,0.572,0.532,�k��,7.0,��
2023/12/04,01:20,0.530,0.805,0.495,1.010,0.724,0.318,0.572,0.533,�k��,5.4,��
2023/12/04,01:30,0.530,0.803,0.498,1.010,0.724,0.319,0.572,0.532,�k��,5.5,��
2023/12/04,01:40,0.531,0.806,0.496,1.010,0.722,0.317,0.573,0.533,�k��,6.0,��
2023/12/04,01:50,0.529,0.804,0.497,1.010,0.724,0.317,0.571,0.532,�k�k��,7.0,��
2023/12/04,02:00,0.530,0.806,0.497,1.009,0.724,0.318,0.571,0.532,�k��,7.8,��
2023/12/04,02:10,0.530,0.803,0.496,1.010,0.724,0.318,0.573,0.532,�k��,8.1,��
2023/12/04,02:20,0.531,0.807,0.497,1.010,0.724,0.317,0.571,0.532,�k��,8.2,��
2023/12/04,02:30,0.531,0.804,0.496,1.010,0.723,0.318,0.572,0.532,�k��,7.2,��
2023/12/04,02:40,0.529,0.805,0.498,1.010,0.725,0.319,0.572,0.534,�k��,5.9,��
2023/12/04,02:50,0.530,0.804,0.497,1.008,0.724,0.317,0.572,0.532,�k��,6.2,��
2023/12/04,03:00,0.530,0.803,0.498,1.012,0.725,0.318,0.574,0.532,�k��,6.6,��
2023/12/04,03:10,0.530,0.804,0.498,1.011,0.725,0.317,0.573,0.533,�k��,7.4,��
2023/12/04,03:20,0.530,0.805,0.497,1.011,0.724,0.318,0.572,0.533,�k��,6.7,��
2023/12/04,03:30,0.530,0.804,0.497,1.011,0.722,0.318,0.572,0.534,�k��,8.3,��
2023/12/04,03:40,0.531,0.804,0.497,1.010,0.723,0.318,0.572,0.533,�k��,7.9,��
2023/12/04,03:50,0.532,0.803,0.495,1.011,0.723,0.318,0.572,0.533,�k��,8.5,��
2023/12/04,04:00,0.529,0.800,0.495,1.010,0.723,0.318,0.572,0.533,�k��,9.2,��
2023/12/04,04:10,0.529,0.805,0.496,1.008,0.722,0.318,0.573,0.532,�k��,8.9,��
2023/12/04,04:20,0.530,0.804,0.497,1.009,0.724,0.318,0.573,0.533,�k��,7.8,��
2023/12/04,04:30,0.530,0.806,0.496,1.011,0.725,0.318,0.572,0.533,�k��,6.0,��
2023/12/04,04:40,0.531,0.803,0.497,1.012,0.723,0.318,0.573,0.532,�k��,7.6,��
2023/12/04,04:50,0.529,0.803,0.497,1.009,0.722,0.317,0.572,0.532,�k��,6.8,��
2023/12/04,05:00,0.528,0.802,0.496,1.011,0.723,0.318,0.571,0.533,�k��,7.4,��
2023/12/04,05:10,0.530,0.803,0.496,1.010,0.723,0.318,0.573,0.532,�k��,7.6,��
2023/12/04,05:20,0.530,0.805,0.496,1.011,0.724,0.318,0.572,0.533,�k��,8.3,��
2023/12/04,05:30,0.529,0.804,0.497,1.010,0.725,0.318,0.572,0.534,�k��,8.0,��
2023/12/04,05:40,0.531,0.805,0.495,1.011,0.722,0.318,0.574,0.533,�k�k��,8.4,��
2023/12/04,05:50,0.531,0.804,0.496,1.011,0.722,0.316,0.572,0.533,�k��,7.1,��
2023/12/04,06:00,0.528,0.803,0.496,1.009,0.723,0.318,0.573,0.532,�k�k��,7.0,��
2023/12/04,06:10,0.530,0.803,0.497,1.008,0.724,0.318,0.572,0.532,�k��,7.9,��
2023/12/04,06:20,0.530,0.804,0.496,1.010,0.723,0.317,0.572,0.532,�k��,7.2,��
2023/12/04,06:30,0.531,0.805,0.496,1.011,0.725,0.318,0.571,0.532,�k��,8.0,��
2023/12/04,06:40,0.529,0.805,0.494,1.009,0.722,0.316,0.573,0.530,�k��,6.5,��
2023/12/04,06:50,0.531,0.803,0.496,1.009,0.724,0.317,0.574,0.533,�k��,6.9,��
2023/12/04,07:00,0.530,0.802,0.496,1.011,0.722,0.316,0.572,0.533,�k��,7.2,��
2023/12/04,07:10,0.529,0.804,0.497,1.010,0.724,0.318,0.573,0.533,�k��,7.3,��
2023/12/04,07:20,0.529,0.804,0.496,1.012,0.723,0.318,0.572,0.531,�k��,8.0,��
2023/12/04,07:30,0.531,0.805,0.496,1.013,0.724,0.316,0.572,0.532,�k��,6.7,��
2023/12/04,07:40,0.529,0.804,0.495,1.011,0.723,0.318,0.572,0.532,�k��,7.9,��
2023/12/04,07:50,0.531,0.804,0.496,1.012,0.724,0.319,0.572,0.532,�k��,7.5,��
2023/12/04,08:00,0.526,0.804,0.495,1.008,0.723,0.316,0.572,0.532,�k��,7.1,��
2023/12/04,08:10,0.525,0.806,0.496,1.011,0.724,0.318,0.573,0.532,�k��,5.6,��
2023/12/04,08:20,0.527,0.802,0.494,1.009,0.722,0.318,0.573,0.533,�k��,4.2,��
2023/12/04,08:30,0.524,0.803,0.497,1.010,0.723,0.318,0.573,0.533,�k��,6.1,��
2023/12/04,08:40,0.525,0.803,0.497,1.010,0.722,0.316,0.572,0.532,�k��,5.1,��
2023/12/04,08:50,0.525,0.804,0.495,1.010,0.724,0.318,0.572,0.533,�k��,5.5,��
2023/12/04,09:00,0.525,0.806,0.497,1.011,0.725,0.317,0.575,0.533,�k�k��,6.0,��
2023/12/04,09:10,0.525,0.805,0.496,1.010,0.723,0.318,0.573,0.533,�k�k��,7.4,��
2023/12/04,09:20,0.526,0.803,0.497,1.010,0.723,0.317,0.572,0.533,�k�k��,6.6,��
2023/12/04,09:30,0.525,0.804,0.496,1.009,0.724,0.316,0.571,0.534,�k�k��,8.4,��
2023/12/04,09:40,0.531,0.803,0.497,1.011,0.724,0.319,0.571,0.535,�k�k��,7.4,��
2023/12/04,09:50,0.530,0.803,0.498,1.010,0.724,0.317,0.571,0.532,�k,5.8,��
2023/12/04,10:00,0.530,0.804,0.495,1.013,0.722,0.316,0.569,0.531,�k,5.7,��
2023/12/04,10:10,0.531,0.802,0.497,1.013,0.726,0.317,0.571,0.532,�k�k��,6.5,��
2023/12/04,10:20,0.531,0.801,0.497,1.010,0.724,0.318,0.572,0.531,�k�k��,6.0,��
2023/12/04,10:30,0.531,0.802,0.496,1.012,0.723,0.319,0.571,0.533,�k,6.5,��
2023/12/04,10:40,0.529,0.804,0.497,1.011,0.723,0.319,0.570,0.534,�k,6.2,��
2023/12/04,10:50,0.528,0.803,0.497,1.011,0.726,0.319,0.571,0.534,�k�k��,7.3,��
2023/12/04,11:00,0.528,0.803,0.499,1.011,0.724,0.317,0.570,0.533,�k,6.8,��
2023/12/04,11:10,0.529,0.802,0.496,1.011,0.725,0.318,0.570,0.532,�k,7.0,��
2023/12/04,11:20,0.530,0.801,0.498,1.013,0.725,0.321,0.571,0.533,�k,8.2,��
2023/12/04,11:30,0.528,0.803,0.498,1.013,0.726,0.318,0.570,0.532,�k�k��,7.9,��
2023/12/04,11:40,0.530,0.801,0.498,1.011,0.726,0.318,0.570,0.533,�k�k��,7.5,��
2023/12/04,11:50,0.528,0.801,0.496,1.015,0.727,0.320,0.569,0.533,�k,7.9,��
2023/12/04,12:00,0.527,0.803,0.499,1.010,0.726,0.318,0.571,0.533,�k�k��,7.2,��
2023/12/04,12:10,0.529,0.802,0.497,1.012,0.726,0.317,0.570,0.533,�k�k��,7.0,��
2023/12/04,12:20,0.529,0.802,0.498,1.011,0.725,0.318,0.571,0.532,�k�k��,7.3,��
2023/12/04,12:30,0.529,0.802,0.498,1.012,0.725,0.318,0.573,0.533,�k�k��,6.9,��
2023/12/04,12:40,0.532,0.803,0.498,1.010,0.726,0.317,0.572,0.531,�k�k��,7.8,��
2023/12/04,12:50,0.531,0.804,0.498,1.012,0.725,0.318,0.572,0.533,�k�k��,6.7,��
2023/12/04,13:00,0.530,0.802,0.496,1.014,0.727,0.318,0.572,0.532,�k�k��,7.2,��
2023/12/04,13:10,0.531,0.801,0.497,1.011,0.724,0.319,0.572,0.530,�k,6.8,��
2023/12/04,13:20,0.528,0.802,0.495,1.013,0.727,0.320,0.573,0.531,�k,4.9,��
2023/12/04,13:30,0.530,0.800,0.497,1.011,0.726,0.319,0.574,0.531,�k�k��,4.9,��
2023/12/04,13:40,0.531,0.803,0.496,1.013,0.727,0.318,0.573,0.530,�k,4.8,��
2023/12/04,13:50,0.528,0.802,0.497,1.010,0.726,0.318,0.573,0.530,�k�k��,4.7,��
2023/12/04,14:00,0.530,0.804,0.496,1.010,0.723,0.319,0.574,0.531,�k,5.1,��
2023/12/04,14:10,0.528,0.802,0.496,1.013,0.725,0.318,0.573,0.531,�k�k��,5.3,��
2023/12/04,14:20,0.528,0.802,0.498,1.014,0.725,0.317,0.574,0.530,�k�k��,4.7,��
2023/12/04,14:30,0.528,0.801,0.498,1.010,0.726,0.319,0.574,0.531,�k,5.7,��
2023/12/04,14:40,0.529,0.802,0.496,1.010,0.725,0.319,0.574,0.531,�k�k��,5.4,��
2023/12/04,14:50,0.530,0.802,0.497,1.012,0.724,0.318,0.574,0.532,�k�k��,5.2,��
2023/12/04,15:00,0.529,0.804,0.496,1.012,0.725,0.319,0.573,0.533,�k,5.4,��
2023/12/04,15:10,0.527,0.805,0.497,1.011,0.726,0.318,0.574,0.535,�k,4.0,��
2023/12/04,15:20,0.529,0.803,0.497,1.010,0.725,0.318,0.574,0.533,�k,4.7,��
2023/12/04,15:30,0.529,0.807,0.496,1.011,0.725,0.318,0.574,0.533,�k,4.3,��
2023/12/04,15:40,0.527,0.807,0.498,1.011,0.724,0.318,0.574,0.532,�k,3.6,��
2023/12/04,15:50,0.529,0.807,0.497,1.010,0.723,0.319,0.575,0.532,�k,3.4,��
2023/12/04,16:00,0.528,0.806,0.498,1.010,0.723,0.319,0.574,0.534,�k,3.9,��
2023/12/04,16:10,0.529,0.805,0.499,1.012,0.725,0.319,0.574,0.533,�k�k��,3.3,��
2023/12/04,16:20,0.530,0.806,0.497,1.012,0.724,0.317,0.574,0.533,�k�k��,3.4,��
2023/12/04,16:30,0.530,0.805,0.497,1.011,0.724,0.317,0.574,0.533,�k�k��,3.7,��
2023/12/04,16:40,0.529,0.804,0.495,1.011,0.724,0.318,0.572,0.533,�k�k��,3.7,��
2023/12/04,16:50,0.530,0.805,0.495,1.012,0.723,0.319,0.573,0.533,�k��,3.1,��
2023/12/04,17:00,0.528,0.805,0.496,1.010,0.725,0.318,0.572,0.532,�k��,2.9,��
2023/12/04,17:10,0.529,0.806,0.496,1.011,0.724,0.319,0.571,0.532,�k��,3.8,��
2023/12/04,17:20,0.529,0.805,0.497,1.010,0.724,0.317,0.572,0.531,�k��,3.9,��
2023/12/04,17:30,0.531,0.806,0.497,1.010,0.725,0.318,0.572,0.532,���k��,3.3,��
2023/12/04,17:40,0.531,0.805,0.497,1.010,0.726,0.318,0.573,0.532,���k��,3.3,��
2023/12/04,17:50,0.529,0.804,0.497,1.014,0.724,0.319,0.572,0.532,��,3.6,��
2023/12/04,18:00,0.530,0.807,0.497,1.012,0.725,0.318,0.571,0.532,���k��,4.7,��
2023/12/04,18:10,0.528,0.804,0.497,1.010,0.724,0.317,0.570,0.533,���k��,4.4,��
2023/12/04,18:20,0.530,0.804,0.496,1.009,0.723,0.318,0.572,0.531,���k��,4.4,��
2023/12/04,18:30,0.529,0.804,0.496,1.009,0.725,0.317,0.569,0.532,���k��,4.6,��
2023/12/04,18:40,0.529,0.806,0.497,1.010,0.724,0.318,0.573,0.531,���k��,4.4,��
2023/12/04,18:50,0.529,0.807,0.496,1.012,0.724,0.319,0.570,0.531,���k��,4.3,��
2023/12/04,19:00,0.529,0.804,0.497,1.010,0.726,0.318,0.570,0.532,���k��,3.8,��
2023/12/04,19:10,0.529,0.804,0.496,1.009,0.726,0.317,0.570,0.532,���k��,4.2,��
2023/12/04,19:20,0.529,0.804,0.496,1.009,0.725,0.319,0.571,0.531,�k��,3.6,��
2023/12/04,19:30,0.529,0.805,0.497,1.009,0.724,0.317,0.570,0.531,���k��,3.6,��
2023/12/04,19:40,0.531,0.804,0.495,1.009,0.723,0.319,0.569,0.532,���k��,2.2,��
2023/12/04,19:50,0.529,0.806,0.495,1.010,0.724,0.318,0.569,0.532,���k��,2.6,��
2023/12/04,20:00,0.529,0.804,0.496,1.011,0.724,0.317,0.571,0.533,���k��,2.6,��
2023/12/04,20:10,0.529,0.804,0.496,1.010,0.725,0.318,0.571,0.531,���k��,3.2,��
2023/12/04,20:20,0.529,0.804,0.495,1.012,0.725,0.317,0.570,0.532,��,2.9,��
2023/12/04,20:30,0.529,0.806,0.496,1.008,0.724,0.319,0.569,0.532,��,2.6,��
2023/12/04,20:40,0.530,0.806,0.497,1.009,0.724,0.316,0.570,0.531,��,2.5,��
2023/12/04,20:50,0.529,0.805,0.496,1.011,0.724,0.317,0.569,0.531,��,2.5,��
2023/12/04,21:00,0.530,0.803,0.493,1.012,0.725,0.318,0.570,0.532,��,3.4,��
2023/12/04,21:10,0.529,0.804,0.496,1.010,0.723,0.317,0.570,0.532,��,3.9,��
2023/12/04,21:20,0.530,0.803,0.494,1.009,0.723,0.318,0.570,0.531,��,2.0,��
2023/12/04,21:30,0.529,0.803,0.496,1.008,0.724,0.318,0.570,0.532,��,2.0,��
2023/12/04,21:40,0.530,0.804,0.497,1.011,0.725,0.317,0.569,0.532,��,2.2,��
2023/12/04,21:50,0.529,0.803,0.496,1.010,0.725,0.317,0.569,0.532,��,2.8,��
2023/12/04,22:00,0.527,0.805,0.496,1.010,0.724,0.318,0.571,0.531,���k��,3.5,��
2023/12/04,22:10,0.529,0.804,0.497,1.010,0.725,0.317,0.569,0.533,��,3.1,��
2023/12/04,22:20,0.529,0.804,0.497,1.009,0.724,0.317,0.569,0.531,���쐼,4.0,��
2023/12/04,22:30,0.530,0.805,0.495,1.010,0.723,0.317,0.569,0.531,���쐼,4.5,��
2023/12/04,22:40,0.530,0.804,0.495,1.011,0.724,0.319,0.570,0.532,��,5.4,��
2023/12/04,22:50,0.529,0.806,0.497,1.012,0.723,0.317,0.570,0.531,��,5.3,��
2023/12/04,23:00,0.529,0.803,0.495,1.011,0.725,0.317,0.570,0.532,��,2.5,��
2023/12/04,23:10,0.528,0.804,0.497,1.009,0.723,0.316,0.570,0.532,��,2.8,��
2023/12/04,23:20,0.527,0.805,0.494,1.010,0.723,0.317,0.569,0.533,��,3.9,��
2023/12/04,23:30,0.528,0.803,0.495,1.011,0.722,0.316,0.570,0.532,���k��,2.6,��
2023/12/04,23:40,0.530,0.802,0.495,1.009,0.724,0.317,0.569,0.531,��,2.9,��
2023/12/04,23:50,0.528,0.804,0.496,1.010,0.725,0.317,0.568,0.531,��,3.9,��
